[[{"header":{"parameterUnit":"m.s-1","parameterCategory":1,"la1":30.2991,"la2":30.254,"lo1":-89.0895,"lo2":-89.0444,"dy":0.0017,"dx":0.0017,"nx":28,"ny":28,"refTime":"2025-11-28T09:00:00:Z","depth":0,"parameterNumber":2,"parameterNumberName":"U-component_of_WINDS"},"data":[0,0,0,0,0,0,0,0,0,0,0,0,0,0,0,0,0,0,0,0,0,0,0,0,0,0,0,0,0,0,0,0,0,0,0,0,0,0,0,0,0,0,0,0,0,0,0,0,0,0,0,0,0,0,0,0,0,0,-3.4549,-3.455,0,-3.4634,-3.4635,-3.4636,-3.4555,-3.4551,-3.4548,-3.4545,-3.4634,-3.4639,-3.4644,0,0,0,0,0,0,0,0,0,0,0,0,0,-3.4317,-3.4321,-3.4549,-3.455,-3.4551,-3.4634,-3.4635,-3.4636,-3.4555,-3.4551,-3.4547,-3.4543,-3.4632,-3.4638,-3.4645,0,0,0,0,0,0,0,0,0,0,0,0,0,-3.4411,-3.4323,-3.4548,-3.452,-3.4519,-3.4633,-3.4635,-3.4636,-3.4556,-3.4551,-3.4546,-3.4542,-3.463,-3.4638,-3.4646,-3.4793,0,0,-3.467,-3.4674,0,0,0,0,0,0,0,0,-3.4406,-3.442,-3.4523,-3.4522,-3.4521,-3.4578,-3.4585,-3.4689,-3.4557,-3.4542,-3.4545,-3.4539,-3.4619,-3.4628,-3.4655,-3.4797,-3.4801,-3.4671,-3.4676,-3.4679,-3.4682,0,0,0,0,0,0,0,-3.44,-3.4416,-3.4582,-3.4525,-3.4523,-3.4504,-3.4512,-3.4605,-3.4607,-3.4543,-3.4537,-3.4548,-3.4618,-3.4647,-3.4656,-3.4802,-3.4671,-3.4678,-3.4683,-3.4686,-3.507,-3.5075,0,0,0,0,0,0,-3.4396,-3.4411,-3.458,-3.4585,-3.445,-3.4512,-3.4521,-3.4565,-3.4606,-3.4607,-3.4552,-3.4544,-3.4636,-3.4647,-3.4659,-3.4835,-3.4679,-3.4687,-3.4692,-3.5065,-3.5072,-3.5077,0,0,0,0,0,0,-3.4391,-3.4412,-3.4576,-3.4496,-3.4516,-3.4521,-3.4571,-3.4569,-3.4599,-3.4613,-3.4613,-3.4582,-3.4632,-3.4648,-3.476,-3.4837,-3.4691,-3.4698,-3.5059,-3.5067,-3.5074,-3.5189,0,0,0,0,0,0,-3.4385,-3.4411,-3.4467,-3.4498,-3.452,-3.4676,-3.4576,-3.4574,-3.4613,-3.4603,-3.4641,-3.4642,-3.463,-3.4749,-3.4768,-3.4846,-3.4704,-3.5052,-3.5062,-3.5072,-3.5178,-3.52,-3.5218,0,0,0,0,0,-3.4377,-3.4495,-3.447,-3.4491,-3.459,-3.4681,-3.4694,-3.4676,-3.4619,-3.4676,-3.4685,-3.4641,-3.4825,-3.4761,-3.4782,-3.4863,-3.5047,-3.5059,-3.5071,-3.5169,-3.5196,-3.5218,0,0,0,0,0,0,-3.4473,-3.4499,-3.4471,-3.4603,-3.464,-3.4667,-3.4738,-3.4704,-3.4759,-3.4748,-3.4724,-3.4733,-3.4853,-3.4869,-3.4797,-3.5008,-3.4927,-3.4944,-3.4994,-3.5019,-3.5039,-3.5034,-3.4711,0,0,0,0,0,-3.451,-3.4581,-3.4599,-3.4714,-3.4734,-3.4733,-3.4772,-3.4755,-3.4793,-3.4808,-3.4826,-3.4865,-3.4931,-3.4975,-3.5037,-3.5179,-3.5187,-3.5245,-3.5265,-3.5282,-3.5297,-3.5375,-3.5401,-3.5117,-3.5117,-3.5117,0,0,-3.4586,-3.4609,-3.4656,-3.4734,-3.4761,-3.4836,-3.4747,-3.483,-3.4885,-3.4821,-3.4929,-3.4943,-3.4984,-3.5113,-3.517,-3.513,-3.5377,-3.5297,-3.531,-3.5317,-3.539,-3.5417,-3.5441,-3.5125,-3.5124,-3.5122,0,0,-3.4765,-3.4788,-3.4887,-3.4916,-3.4957,-3.4955,-3.4979,-3.5011,-3.5018,-3.5125,-3.5079,-3.5144,-3.5259,-3.5291,-3.5322,-3.5512,-3.5474,-3.5532,-3.5638,-3.5713,-3.5736,-3.5756,-3.5825,-3.585,-3.5547,-3.5547,-3.5548,0,-3.4855,-3.4965,-3.4942,-3.5029,-3.5065,-3.5009,-3.511,-3.5139,-3.5199,-3.5226,-3.5179,-3.5322,-3.5346,-3.5482,-3.5528,-3.5554,-3.5582,-3.5529,-3.5734,-3.5754,-3.5772,-3.5838,-3.5864,-3.5554,-3.5554,-3.5553,-3.5552,0,-3.5075,-3.5152,-3.5227,-3.5286,-3.5331,-3.5424,-3.5415,-3.5463,-3.5442,-3.5445,-3.5556,-3.5582,-3.5649,-3.5679,-3.566,-3.5813,-3.5786,-3.5738,-3.5656,-3.5807,-3.5868,-3.5893,-3.5564,-3.5562,-3.556,-3.5558,0,0,-3.5319,-3.5363,-3.5391,-3.5418,-3.5459,-3.5519,-3.5609,-3.5674,-3.5716,-3.5758,-3.5835,-3.5932,-3.5887,-3.5923,-3.5906,-3.5972,-3.6123,-3.5915,-3.5916,-3.5955,-3.6295,-3.6333,-3.6363,-3.6097,-3.6101,-3.6105,-3.6292,0,-3.55,-3.5657,-3.5639,-3.5789,-3.5861,-3.5808,-3.5887,-3.5921,-3.5926,-3.5988,-3.5993,-3.6064,-3.5998,-3.6019,-3.6082,-3.6091,-3.6191,-3.6077,-3.6169,-3.6173,-3.6163,-3.6395,-3.6436,-3.6611,-3.6316,-3.632,-3.6323,0,-3.5733,-3.5784,-3.5942,-3.5972,-3.6002,-3.6073,-3.6131,-3.619,-3.6228,-3.6227,-3.6266,-3.6237,-3.6329,-3.6243,-3.6369,-3.6291,-3.6327,-3.6337,-3.6344,-3.6354,-3.6259,-3.6414,-3.6666,-3.6694,-3.636,-3.6357,-3.6354,0,-3.5898,-3.6006,-3.6114,-3.6138,-3.6176,-3.6228,-3.6246,-3.6278,-3.6318,-3.6369,-3.6395,-3.6455,-3.6489,-3.6537,-3.6525,-3.6463,-3.6655,-3.6567,-3.6658,-3.6658,-3.6703,-3.6701,-3.6968,-3.6722,-3.6721,-3.6721,-3.672,0,-3.6104,-3.6203,-3.6189,-3.6256,-3.6366,-3.6343,-3.6452,-3.6464,-3.6493,-3.6562,-3.6519,-3.6584,-3.6564,-3.6628,-3.662,-3.6726,-3.6741,-3.6744,-3.6741,-3.6749,-3.675,-3.6775,-3.6763,-3.6728,-3.6726,-3.6725,-3.6724,0,-3.6308,-3.6302,-3.6418,-3.6444,-3.6452,-3.6532,-3.6554,-3.6618,-3.6618,-3.6706,-3.6725,-3.6727,-3.6801,-3.6793,-3.6876,-3.687,-3.7003,-3.6984,-3.6991,-3.6987,-3.7079,-3.7071,-3.7374,-3.7413,-3.7139,-3.7142,-3.7144,0,-3.6442,-3.6517,-3.6551,-3.6593,-3.6615,-3.6684,-3.6725,-3.6705,-3.6749,-3.6797,-3.6855,-3.6925,-3.698,-3.71,-3.7109,-3.7172,-3.7156,-3.7257,-3.7165,-3.7172,-3.7161,-3.7157,-3.7166,-3.7277,-3.728,-3.7282,-3.7284,0,-3.668,-3.6673,-3.6733,-3.6793,-3.6843,-3.6889,-3.693,-3.6968,-3.6951,-3.7003,-3.7078,-3.7121,-3.7205,-3.7275,-3.7334,-3.7353,-3.7318,-3.7313,-3.7337,-3.7348,-3.735,-3.7353,-3.7043,-3.7307,-3.7304,-3.7303,-3.7302,-3.7301,-3.6855,-3.6919,-3.6953,-3.7022,-3.7051,-3.709,-3.7151,-3.7159,-3.7221,-3.7288,-3.7272,-3.7357,-3.7392,-3.7468,-3.7493,-3.7559,-3.7522,-3.7558,-3.7567,-3.7577,-3.7589,-3.7337,-3.7569,-3.7569,-3.7568,-3.7567,-3.7567,0,-3.7093,-3.7111,-3.7174,-3.7234,-3.7288,-3.7247,-3.7291,-3.7339,-3.7415,-3.745,-3.7505,-3.7591,-3.7658,-3.7672,-3.7737,-3.7787,-3.7773,-3.7805,-3.7803,-3.7808,-3.7617,-3.759,-3.7816,-3.7816,-3.7816,-3.7816,-3.7816,-3.7816,-3.7223,-3.7331,-3.7328,-3.745,-3.7467,-3.755,-3.7579,-3.7615,-3.7644,-3.7742,-3.7798,-3.7806,-3.7833,-3.7899,-3.7959,-3.7961,-3.7988,-3.8028,-3.8025,-3.7846,-3.7821,-3.7798,-3.7773,-3.8034,-3.8034,-3.8211,-3.8212,-3.8214]},{"header":{"parameterUnit":"m.s-1","parameterCategory":1,"la1":30.2991,"la2":30.254,"lo1":-89.0895,"lo2":-89.0444,"dy":0.0017,"dx":0.0017,"nx":28,"ny":28,"refTime":"2025-11-28T09:00:00:Z","depth":0,"parameterNumber":3,"parameterNumberName":"V-component_of_WINDS"},"data":[0,0,0,0,0,0,0,0,0,0,0,0,0,0,0,0,0,0,0,0,0,0,0,0,0,0,0,0,0,0,0,0,0,0,0,0,0,0,0,0,0,0,0,0,0,0,0,0,0,0,0,0,0,0,0,0,0,0,-6.035,-6.0351,0,-6.0456,-6.0457,-6.0458,-6.0386,-6.0383,-6.0379,-6.0376,-6.0479,-6.0485,-6.0491,0,0,0,0,0,0,0,0,0,0,0,0,0,-6.008,-6.0086,-6.035,-6.0351,-6.0353,-6.0456,-6.0457,-6.0458,-6.0386,-6.0382,-6.0378,-6.0375,-6.0478,-6.0484,-6.0491,0,0,0,0,0,0,0,0,0,0,0,0,0,-6.0193,-6.0087,-6.035,-6.0329,-6.0328,-6.0455,-6.0457,-6.0459,-6.0387,-6.0382,-6.0377,-6.0373,-6.0475,-6.0484,-6.0492,-6.0644,0,0,-6.0519,-6.0523,0,0,0,0,0,0,0,0,-6.0186,-6.0203,-6.0331,-6.0331,-6.033,-6.0403,-6.04,-6.0521,-6.0388,-6.0365,-6.0376,-6.037,-6.0458,-6.0467,-6.0498,-6.0648,-6.0653,-6.052,-6.0525,-6.0529,-6.0531,0,0,0,0,0,0,0,-6.0179,-6.0198,-6.0392,-6.0333,-6.0332,-6.0313,-6.0323,-6.0422,-6.0437,-6.0366,-6.0361,-6.0375,-6.0456,-6.049,-6.05,-6.0654,-6.0519,-6.0527,-6.0532,-6.0536,-6.0934,-6.0939,0,0,0,0,0,0,-6.0173,-6.0192,-6.0388,-6.0395,-6.0245,-6.0322,-6.0334,-6.0384,-6.0436,-6.0439,-6.0379,-6.0371,-6.0477,-6.049,-6.0503,-6.0684,-6.0528,-6.0537,-6.0542,-6.0929,-6.0935,-6.0941,0,0,0,0,0,0,-6.0168,-6.0192,-6.0384,-6.0292,-6.0315,-6.0332,-6.0389,-6.0389,-6.0422,-6.0446,-6.0447,-6.0411,-6.0474,-6.0491,-6.061,-6.0687,-6.054,-6.0548,-6.0922,-6.0931,-6.0938,-6.1047,0,0,0,0,0,0,-6.0161,-6.019,-6.0249,-6.0294,-6.032,-6.0491,-6.0394,-6.0395,-6.0438,-6.0429,-6.0476,-6.0479,-6.0471,-6.0597,-6.0618,-6.0696,-6.0555,-6.0916,-6.0926,-6.0936,-6.1037,-6.1058,-6.1076,0,0,0,0,0,-6.0151,-6.0275,-6.0253,-6.0277,-6.0395,-6.0495,-6.051,-6.0501,-6.0444,-6.0503,-6.0518,-6.0477,-6.0674,-6.061,-6.0633,-6.0714,-6.0911,-6.0923,-6.0935,-6.1028,-6.1054,-6.1076,0,0,0,0,0,0,-6.0237,-6.028,-6.0256,-6.0398,-6.0444,-6.0483,-6.0557,-6.0528,-6.0589,-6.0578,-6.0561,-6.0573,-6.0697,-6.0717,-6.0644,-6.0863,-6.0783,-6.0801,-6.0846,-6.0871,-6.089,-6.0883,-6.0562,0,0,0,0,0,-6.0272,-6.0352,-6.0385,-6.0507,-6.0531,-6.0541,-6.0584,-6.0573,-6.0618,-6.0637,-6.066,-6.0705,-6.0777,-6.0825,-6.0892,-6.1039,-6.1048,-6.1106,-6.1126,-6.1142,-6.1157,-6.1236,-6.1262,-6.0981,-6.0981,-6.0981,0,0,-6.0346,-6.038,-6.0431,-6.0525,-6.0559,-6.0641,-6.0557,-6.0647,-6.0707,-6.065,-6.0764,-6.0783,-6.0832,-6.0965,-6.1025,-6.0986,-6.1237,-6.1157,-6.117,-6.1177,-6.1251,-6.1278,-6.1302,-6.0989,-6.0988,-6.0986,0,0,-6.0523,-6.0557,-6.0663,-6.0699,-6.0752,-6.0757,-6.0783,-6.0827,-6.0837,-6.0952,-6.0911,-6.0981,-6.1105,-6.1142,-6.1177,-6.1367,-6.1332,-6.1389,-6.1492,-6.157,-6.1592,-6.1611,-6.168,-6.1704,-6.1404,-6.1405,-6.1405,0,-6.0608,-6.0732,-6.072,-6.0814,-6.0856,-6.0809,-6.0915,-6.095,-6.1022,-6.1052,-6.1007,-6.1162,-6.1191,-6.1333,-6.138,-6.1409,-6.1437,-6.1384,-6.159,-6.1609,-6.1627,-6.1692,-6.1718,-6.1411,-6.1411,-6.141,-6.1409,0,-6.0833,-6.0919,-6.0998,-6.1071,-6.1122,-6.1221,-6.1223,-6.1275,-6.1259,-6.1269,-6.1385,-6.1419,-6.1493,-6.1525,-6.1509,-6.1664,-6.1638,-6.1592,-6.1512,-6.1661,-6.1722,-6.1747,-6.1421,-6.1419,-6.1417,-6.1415,0,0,-6.1068,-6.1134,-6.1163,-6.1195,-6.1251,-6.1316,-6.1412,-6.1486,-6.1531,-6.1582,-6.1662,-6.1768,-6.1726,-6.1765,-6.1753,-6.1821,-6.197,-6.1766,-6.1767,-6.1803,-6.2143,-6.2179,-6.2208,-6.1947,-6.1951,-6.1955,-6.2139,0,-6.1249,-6.142,-6.1412,-6.1571,-6.165,-6.1606,-6.169,-6.1732,-6.1743,-6.181,-6.1821,-6.1898,-6.1835,-6.1859,-6.1924,-6.1938,-6.2038,-6.1925,-6.202,-6.2024,-6.2011,-6.224,-6.2277,-6.245,-6.2163,-6.2167,-6.217,0,-6.1483,-6.1544,-6.1712,-6.1756,-6.1788,-6.1864,-6.1931,-6.1996,-6.2042,-6.2045,-6.209,-6.2067,-6.2162,-6.2079,-6.221,-6.2133,-6.2171,-6.2184,-6.219,-6.22,-6.2107,-6.2256,-6.2505,-6.2531,-6.2207,-6.2204,-6.2201,0,-6.1639,-6.1762,-6.1879,-6.1908,-6.1961,-6.2016,-6.204,-6.2081,-6.2126,-6.2184,-6.2213,-6.228,-6.2317,-6.2369,-6.2363,-6.2303,-6.2497,-6.2413,-6.2502,-6.2502,-6.2546,-6.2543,-6.2805,-6.2569,-6.2568,-6.2568,-6.2567,0,-6.1842,-6.1946,-6.1949,-6.2021,-6.2137,-6.2125,-6.2239,-6.2257,-6.2294,-6.2368,-6.2333,-6.2402,-6.239,-6.2459,-6.2455,-6.2565,-6.2581,-6.2586,-6.2584,-6.259,-6.259,-6.2616,-6.2604,-6.2575,-6.2573,-6.2572,-6.2571,0,-6.2036,-6.2042,-6.2166,-6.2207,-6.222,-6.2303,-6.2337,-6.2404,-6.2412,-6.2505,-6.2526,-6.2538,-6.2618,-6.2617,-6.2707,-6.2704,-6.2839,-6.2822,-6.2824,-6.2821,-6.2911,-6.2903,-6.3199,-6.3238,-6.2975,-6.2978,-6.298,0,-6.2166,-6.2246,-6.2296,-6.2343,-6.2372,-6.2449,-6.2495,-6.2486,-6.2535,-6.2593,-6.2653,-6.2729,-6.279,-6.2918,-6.2934,-6.3002,-6.2987,-6.3087,-6.2997,-6.3001,-6.299,-6.2986,-6.2994,-6.3104,-6.3107,-6.311,-6.3112,0,-6.2396,-6.2396,-6.2464,-6.2535,-6.2591,-6.2646,-6.2695,-6.2736,-6.2732,-6.2789,-6.287,-6.2918,-6.301,-6.3086,-6.3152,-6.3174,-6.3143,-6.3139,-6.3164,-6.3172,-6.317,-6.3173,-6.2873,-6.3133,-6.3131,-6.3129,-6.3128,-6.3127,-6.2563,-6.2632,-6.2678,-6.2756,-6.2793,-6.2841,-6.2906,-6.2923,-6.2991,-6.3067,-6.3057,-6.3148,-6.319,-6.3276,-6.3305,-6.3375,-6.334,-6.3375,-6.3384,-6.3393,-6.3403,-6.3158,-6.3386,-6.3386,-6.3385,-6.3384,-6.3384,0,-6.2792,-6.282,-6.2892,-6.2964,-6.3025,-6.2991,-6.3044,-6.3097,-6.3178,-6.3222,-6.3283,-6.3376,-6.3449,-6.3471,-6.3541,-6.3593,-6.358,-6.3612,-6.3608,-6.3614,-6.343,-6.3403,-6.3621,-6.3621,-6.3621,-6.3621,-6.3621,-6.3621,-6.2919,-6.3035,-6.3039,-6.3172,-6.3198,-6.3289,-6.3322,-6.3365,-6.34,-6.3507,-6.3568,-6.3582,-6.3617,-6.3689,-6.3755,-6.3759,-6.3787,-6.3825,-6.3823,-6.3651,-6.3627,-6.3605,-6.3579,-6.3831,-6.3831,-6.4002,-6.4003,-6.4004]}]]